Location: Canyon City
(32.5951°N, 116.5278°W)
Time: 02:17:53
(UTC+00:00)

CZ-2C R/B - Pass Details

Date: 08 September 2024
Orbit: 664 x 778 km, 98.4° (Epoch: 03 October)

Event Time Altitude Azimuth Distance (km) Brightness Sun altitude
Rises 12:43:51 0° 347° (NNW) 3,156 5.7 -9.5°
Reaches altitude 10° 12:47:45 10° 315° (NW) 2,199 4.6 -8.7°
Maximum altitude 12:49:19 12° 296° (WNW) 2,080 4.3 -8.4°
Drops below altitude 10° 12:50:52 10° 277° (W) 2,171 4.2 -8.1°
Enters shadow 12:51:21 - 271° (W) 2,237 4.3 -8.0°
